Probability
0 0 0 0 0 0 0 0 0 0 0 0 0 0 0 0 0 0 0 0 0 0 0 0 0 0 0 0 0 0 0 0 0 0 0 0 0 0
0 0 0 0 0 0 0 0 0 0 0 0 0 0 0 0 0 0 0 0 0 0 0 0 0 0 0 0 0 0 0 0 0 0 0 0 0 0
0 0 0 0 0 0 0 0 0 0 0 0 0 0 0 0 0 0 0 0 0 0 0 0 0 0 0 0 0 0 0 0 0 0 0 0 0 0
0 0 0 0 0 0 0 0 0 0 0 0 0 0 0 0 0 0 0 0 0 0 0 0 0 0 0 0 0 0 0 0 0 0 0 0 0 0
0 0 0 0 0 0 0 0 0 0 0 0 0 0 0 0 0 0 0 0 0 0 0 0 0 0 0 0 0 0 0 0 0 0 0 0 0 0
0 0 0 0 0 0 0 0 0 0 0 0 0 0 0 1 1 1 0 0 0 0 0 0 0 0 0 0 0 0 0 0 0 0 0 0 0 0
0 0 0 0 0 0 0 0 0 0 0 0 0 0 0 1 1 1 0 0 0 0 0 0 0 0 0 0 0 0 0 0 0 0 0 0 0 0
0 0 0 0 0 0 0 0 0 0 0 0 0 0 0 0 0 0 0 0 0 0 0 0 0 0 0 0 0 0 0 0 0 0 0 0 0 0
0 0 0 0 0 0 0 0 0 0 0 0 0 0 0 0 0 0 0 0 0 0 0 0 0 0 0 0 0 0 0 0 0 0 0 0 0 0
0 0 0 0 0 0 0 0 0 0 0 0 0 0 0 0 0 0 0 0 0 0 0 0 0 0 0 0 0 0 0 0 0 0 0 0 0 0
0 0 0 0 0 0 0 0 0 0 0 0 0 0 0 0 0 0 0 0 0 0 0 0 0 0 0 0 0 0 0 0 0 0 0 0 0 0
0 0 0 0 0 0 0 0 0 0 0 0 0 0 0 0 0 0 0 0 0 0 0 0 0 0 0 0 0 0 0 0 0 0 0 0 0 0
0 0 0 0 0 0 0 0 0 0 0 0 0 0 0 0 0 0 0 0 0 0 0 0 0 0 0 0 0 0 0 0 0 0 0 0 0 0
0 0 0 0 0 0 0 0 0 0 0 0 0 0 0 0 0 0 0 0 0 0 0 0 0 0 0 0 0 0 0 0 0 0 0 0 0 0
0 0 0 0 0 0 0 0 0 0 0 0 0 0 0 0 0 0 0 0 0 0 0 0 0 0 0 0 0 0 0 0 0 0 0 0 0 0
0 0 0 0 0 0 0 0 0 0 0 0 0 0 0 0 0 0 0 0 0 0 0 0 0 0 0 0 0 0 0 0 0 0 0 0 0 0
0 0 0 0 0 0 0 0 0 0 0 0 0 0 0 0 0 0 0 0 0 0 0 0 0 0 0 0 0 0 0 0 0 0 0 0 0 0
0 0 0 0 0 0 0 0 0 0 0 0 0 0 0 0 0 0 0 0 0 0 0 0 0 0 0 0 0 0 0 0 0 0 0 0 0 0
0 0 0 0 0 0 0 0 0 0 0 0 0 0 0 0 0 0 0 0 0 0 0 0 0 0 0 0 0 0 0 0 0 0 0 0 0 0
0 0 0 0 0 0 0 0 0 0 0 0 0 0 0 0 0 0 0 0 0 0 0 0 0 0 0 0 0 0 0 0 0 0 0 0 0 0
0 0 0 0 0 0 0 0 0 0 0 0 0 0 0 0 0 0 0 0 0 0 0 0 0 0 0 0 0 0 0 0 0 0 0 0 0 0
0 0 0 0 0 0 0 0 0 0 0 0 0 0 0 0 0 0 0 0 0 0 0 0 0 0 0 0 0 0 0 0 0 0 0 0 0 0
0 0 0 0 0 0 0 0 0 0 0 0 0 0 0 0 0 0 0 0 0 0 0 0 0 0 0 0 0 0 0 0 0 0 0 0 0 0
Wind_Speed
0 1 1 1 1 1 2 2 3 1 2 2 1 1 1 0 1 1 2 3 3 3 3 2 2 2 2 2 2 2 2 2 2 2 1 1 1 2
1 1 1 1 0 1 1 1 1 2 2 2 2 1 1 0 1 1 1 3 3 3 3 2 2 1 2 2 2 2 2 2 2 1 1 1 2 2
0 0 1 1 1 1 1 1 1 1 1 1 1 1 0 0 1 1 1 1 2 3 2 2 1 1 1 2 2 2 2 2 1 2 2 1 1 1
1 1 1 1 1 1 1 2 2 2 2 2 1 1 1 0 0 1 1 1 1 2 2 2 1 1 1 1 2 2 2 2 2 2 2 1 1 0
2 1 1 1 1 1 1 1 1 1 1 2 1 0 1 0 1 1 1 2 1 2 2 2 1 0 1 1 1 2 2 2 2 2 2 1 1 1
1 2 2 2 2 2 2 2 2 2 1 1 1 0 0 0 1 0 1 2 2 2 2 2 2 2 1 1 1 2 2 3 2 3 3 2 2 2
1 2 2 2 2 2 2 2 3 2 2 1 1 0 0 1 1 1 1 1 1 1 2 2 2 1 2 2 1 1 2 2 2 2 2 2 3 3
2 2 2 2 2 2 2 3 4 3 3 2 1 2 2 2 1 1 1 0 1 1 0 2 1 1 1 1 1 1 1 2 2 2 2 2 2 2
2 2 1 1 1 1 2 2 2 2 3 4 3 3 3 3 3 2 2 2 2 1 0 1 1 1 2 1 1 0 1 0 1 1 1 1 1 1
2 2 2 1 1 1 2 2 1 1 2 2 3 3 3 3 3 3 3 2 0 0 1 1 1 2 2 1 1 0 0 0 1 1 1 1 0 0
1 1 1 1 1 2 3 2 1 1 1 1 0 0 1 3 3 2 2 1 1 1 0 1 1 1 1 1 1 1 1 1 1 1 0 1 0 0
1 1 1 1 1 1 3 3 2 2 0 0 1 2 1 2 4 3 3 2 1 1 1 1 1 0 1 1 1 1 1 1 1 0 0 0 0 1
1 1 1 1 1 1 2 2 3 2 1 1 1 1 1 1 1 1 1 2 2 2 2 2 1 1 1 1 1 1 1 1 1 1 1 0 1 1
2 2 1 1 1 0 1 1 1 2 1 1 1 0 0 1 1 1 1 1 1 2 2 3 2 2 1 1 2 1 1 1 1 1 1 1 1 1
2 2 1 1 0 0 0 1 2 2 2 1 1 2 2 1 1 0 1 0 1 1 1 1 2 2 2 2 2 1 1 1 1 0 0 1 1 1
1 0 1 1 1 1 1 0 1 1 2 1 1 1 0 0 0 1 1 1 0 1 1 1 1 2 2 2 2 2 1 1 1 1 1 1 1 1
2 1 1 1 1 1 1 0 1 1 1 0 1 1 0 0 1 0 1 1 1 1 1 1 1 0 1 2 2 2 2 2 2 2 1 2 2 2
3 1 1 1 1 1 1 1 1 1 1 1 1 1 1 1 1 0 1 1 2 2 1 1 0 1 1 2 3 3 2 2 2 2 2 2 3 3
2 2 2 2 2 2 2 2 2 2 2 2 2 2 1 1 1 1 1 1 2 2 2 1 1 1 2 3 3 3 3 2 2 2 2 3 4 4
2 2 3 3 2 2 2 2 2 2 2 2 2 2 2 2 2 2 2 2 2 2 1 1 2 2 3 3 3 3 4 4 3 3 3 2 3 4
3 3 3 3 3 3 3 2 2 3 3 3 2 3 3 3 3 3 2 3 3 2 3 3 4 3 1 0 2 3 3 5 5 4 3 2 3 3
3 3 3 3 3 3 3 3 2 3 3 3 3 3 3 3 4 4 3 3 3 3 4 3 1 1 1 2 4 4 4 3 4 6 6 6 4 4
4 3 3 3 3 3 3 3 4 3 3 3 3 3 3 3 3 3 4 4 3 3 3 2 1 1 2 3 4 4 5 4 3 3 4 7 9 11
Wind_Direction
221 204 219 244 190 187 170 164 159 197 266 263 280 305 319 341 352 18 7 12 19 26 36 37 49 77 83 91 102 100 96 90 92 86 82 84 76 61
203 190 234 247 195 179 176 173 170 171 223 255 250 279 286 346 24 27 349 3 11 17 23 30 48 87 103 110 110 109 117 129 133 126 110 78 77 67
293 237 255 216 172 174 157 149 152 146 189 275 284 304 345 345 7 9 351 352 344 3 10 22 48 87 104 128 142 141 137 137 145 148 130 111 86 68
251 241 286 232 185 190 170 175 181 175 166 202 272 302 272 241 340 6 357 1 339 357 6 10 43 92 104 123 145 155 149 141 142 152 154 162 169 101
237 225 249 219 224 226 188 185 190 170 145 162 209 300 320 348 40 6 2 351 337 343 340 342 349 2 148 160 161 162 162 164 164 166 165 175 199 232
242 237 235 221 223 214 197 195 173 147 132 131 160 202 314 338 97 28 348 349 342 347 346 344 348 355 324 241 195 182 181 182 182 187 191 197 210 225
257 260 247 242 232 204 191 182 165 158 150 145 178 180 225 187 206 207 244 320 332 346 341 344 352 360 345 331 306 208 191 184 185 193 202 209 219 229
243 270 269 269 266 211 180 160 158 166 175 169 189 207 226 218 192 193 177 173 283 310 332 318 359 333 311 304 334 344 216 186 189 202 204 210 229 242
233 254 282 294 278 205 181 150 162 167 172 175 186 211 211 209 183 192 197 193 222 258 223 279 310 293 293 314 315 15 12 307 213 207 219 224 245 266
237 233 229 260 220 162 157 146 162 219 213 188 194 209 200 189 189 197 193 163 67 327 144 240 271 269 296 298 312 348 15 16 318 224 206 204 180 258
253 250 225 236 253 146 143 154 173 276 281 155 155 239 158 151 144 114 125 145 234 256 205 198 257 276 286 291 300 305 330 341 332 309 226 141 116 100
281 292 254 252 286 148 165 167 189 235 238 14 23 14 45 155 155 164 176 178 197 230 208 185 220 245 291 293 312 324 318 313 309 315 54 78 89 113
228 255 257 243 248 235 193 186 207 186 161 157 129 44 39 59 164 183 195 184 187 227 198 173 189 197 217 273 295 304 302 299 285 267 233 204 126 129
219 233 237 226 213 232 211 213 163 117 123 132 139 201 227 256 256 233 228 229 226 227 201 175 183 190 189 230 265 280 291 291 273 245 224 193 186 220
210 214 221 214 217 228 293 174 130 129 138 150 204 237 236 229 226 247 255 264 340 336 192 198 193 191 187 208 238 249 268 284 275 270 212 200 198 194
222 228 81 68 59 44 32 78 128 158 160 184 217 242 271 178 209 227 220 208 257 314 311 280 226 189 201 223 215 239 236 243 258 258 236 249 243 233
141 88 67 59 49 22 11 37 120 124 157 197 189 185 203 226 249 226 194 175 196 239 281 310 323 248 217 204 223 238 236 254 252 239 222 248 254 246
132 135 185 195 214 220 224 226 198 202 213 205 202 204 211 217 233 239 203 194 220 239 238 226 170 27 355 298 228 225 229 242 254 236 220 239 261 258
148 185 209 217 226 222 218 216 224 226 213 206 212 216 216 220 221 230 226 235 245 248 253 233 197 187 247 278 276 223 219 235 231 237 233 232 250 258
195 208 218 223 227 223 219 219 222 219 210 213 218 215 210 212 219 227 221 224 237 251 265 259 230 225 231 253 267 272 236 223 220 238 250 257 264 278
217 222 224 226 231 227 222 216 212 216 216 211 216 217 212 211 223 229 226 234 234 236 241 249 250 257 275 319 288 284 267 234 226 226 227 243 269 274
219 221 223 224 225 222 218 213 215 220 218 218 221 222 221 218 224 225 224 226 232 239 247 258 259 216 213 237 262 278 289 286 262 257 246 230 223 233
221 223 225 226 223 218 215 217 219 224 222 220 220 224 223 227 230 226 226 228 234 240 248 256 247 231 243 246 259 273 280 285 286 283 274 264 252 255